Flag for U.S.A. Weather past 2 weeks in Plano, Texas, U.S.A.

Now
68 °F

Sunny.


Feels Like: 68 °F
Forecast: 63 / 75 °F
Wind: 8 mph from Southeast

Location: McKinney Municipal Airport

Current Time: Apr 21, 2015 at 7:28:18 PM

Latest Report: Apr 21, 2015 at 6:53 PM


Visibility: 10 mi

Pressure: 29.92 "Hg

Humidity: 59%

Dew point: 53 °F

Location of PlanoLocation

Historic Weather in Plano — Graph

°F

Plano temperature yesterday

Maximum temperature yesterday: 69 °F (at 3:53 PM)
Minimum temperature yesterday: 46 °F (at 6:53 AM)
Average temperature yesterday: 58 °F

Past Weeks' High & Low Weather Summary

 TemperatureHumidityPressure
High82 °F (Apr 6, 5:53 PM)100% (Apr 17, 11:53 PM)30.24 "Hg (Apr 17, 11:53 PM)
Low46 °F (Apr 20, 6:53 AM)33% (Apr 20, 12:53 PM)29.72 "Hg (Apr 19, 12:53 PM)
Average65 °F76%29.95 "Hg
* Reported Apr 6 5:53 PM — Apr 21 5:53 PM, Plano, Weather by CustomWeather, © 2015

Note: Actual official high and low records may vary slightly from our data, if they occured in-between our weather recording intervals... More about our weather records

Advertising

Plano weather history for previous 24 hours

 ConditionsComfort  
Time TempWeatherWind HumidityBarometerVisibility
5:53 PM
Tue, Apr 21
69 °FSunny.10 mph55%29.93 "Hg10 mi
4:53 PM68 °FPartly sunny.12 mph57%29.93 "Hg10 mi
3:53 PM64 °FOvercast.3 mph78%29.96 "Hg10 mi
2:53 PM62 °FOvercast.10 mph75%29.98 "Hg10 mi
2:00 PM59 °FThunderstorms. Overcast.7 mph81%29.99 "Hg10 mi
12:53 PM56 °FThundershowers. Mostly cloudy.3 mph87%30.05 "Hg10 mi
12:00 PM56 °FThunderstorms. Overcast.3 mph87%30.05 "Hg10 mi
10:53 AM55 °FThundershowers. Mostly cloudy.5 mph87%30.06 "Hg10 mi
10:04 AM55 °FThunderstorms. Mostly cloudy.8 mph83%30.02 "Hg6 mi
9:53 AM56 °FHeavy rain. Cloudy.7 mph81%30.05 "Hg4 mi
8:53 AM55 °FLight rain. Broken clouds.5 mph80%30.03 "Hg10 mi
7:53 AM49 °FPartly sunny.No wind90%30.03 "Hg10 mi
6:53 AM46 °FClear.3 mph93%30.01 "Hg10 mi
5:53 AM46 °FClear.3 mph93%29.99 "Hg10 mi
4:53 AM47 °FClear.No wind93%30.01 "Hg10 mi
3:53 AM47 °FClear.No wind93%30.03 "Hg10 mi
2:53 AM49 °FClear.No wind90%30.01 "Hg10 mi
1:53 AM49 °FClear.No wind93%30.03 "Hg10 mi
12:53 AM51 °FClear.No wind83%30.04 "Hg10 mi
11:53 PM
Mon, Apr 20
52 °FClear.No wind83%30.03 "Hg10 mi
10:53 PM55 °FClear.No wind72%30.03 "Hg10 mi
9:53 PM57 °FClear.No wind67%30.02 "Hg10 mi
8:53 PM59 °FSunny.3 mph58%29.99 "Hg10 mi
7:53 PM64 °FSunny.3 mph43%29.98 "Hg10 mi
Weather by CustomWeather, © 2015

See weather overviewHow to use our weather pages